Station NPDW3 - Northport Pier at Death's Door, WI Image indicating link to RSS feed of recent meteorological observations for station NPDW3


Conditions at NPDW3 as of
(2:00 pm CDT)
1900 GMT on 04/16/2024:
     

Click on the graph icon in the table below to see a time series plot of the last five days of that observation.

5-day plot - Wind Direction Wind Direction (WDIR): NE ( 40 deg true )
5-day plot - Wind Speed Wind Speed (WSPD): 15.0 kts
5-day plot - Wind Gust Wind Gust (GST): 19.0 kts
5-day plot - Atmospheric Pressure Atmospheric Pressure (PRES):30.12 in
5-day plot - Pressure Tendency Pressure Tendency (PTDY):-0.07 in ( Falling )
5-day plot - Wind Speed at 10 Meters Wind Speed at 10 meters (WSPD10M): 15.5 kts
5-day plot - Wind Speed at 20 Meters Wind Speed at 20 meters (WSPD20M): 15.5 kts
5-day plot -  Wind Speed, Wind Gust and Atmospheric Pressure Combined plot of Wind Speed, Gust, and Air Pressure
Previous observations
TIME
(CDT)
5-day plot - Wind Direction
WDIR
 
5-day plot - Wind Speed
WSPD
kts
5-day plot - Wind Gust
GST
kts
5-day plot - Wave Height
WVHT
ft
5-day plot - Dominant Wave Period
DPD
sec
5-day plot - Average Wave Period
APD
sec
5-day plot - Mean Wave Direction
MWD
 
5-day plot - Atmospheric Pressure
PRES
in
5-day plot - Pressure Tendency
PTDY
in
5-day plot - Air Temperature
ATMP
°F
5-day plot - Water Temperature
WTMP
°F
5-day plot - Dew Point
DEWP
°F
5-day plot - Salinity
SAL
psu
5-day plot - Visibility
VIS
nmi
5-day plot - Tide (above MLLW)
TIDE
ft
2024-04-16 01:50 pm NE 15.9 21.0----30.13-------
2024-04-16 01:00 pm NE 12.0 17.1----30.15-0.07------
2024-04-16 12:50 pm NE 12.0 15.9----30.17-------
2024-04-16 12:00 pm NE 14.0 15.0----30.19-0.02------
2024-04-16 11:50 am NE 12.0 14.0----30.19-------
2024-04-16 11:00 am NE 11.1 15.0----30.19-0.01------
2024-04-16 10:50 am NE 9.9 13.0----30.20-------
2024-04-16 10:00 am E 8.9 12.0----30.22+0.02------
2024-04-16 09:50 amENE 8.9 11.1----30.22-------
2024-04-16 09:00 amENE 9.9 13.0----30.21+0.01------
2024-04-16 08:50 amENE 9.9 13.0----30.21-------
2024-04-16 08:00 amENE 9.9 13.0----30.20+0.02------
2024-04-16 07:50 am NE 8.9 12.0----30.21-------
2024-04-16 07:00 amENE 5.1 7.0----30.20+0.01------
2024-04-16 06:50 amENE 5.1 7.0----30.20-------
2024-04-16 06:00 am E 1.9 5.1----30.20+0.01------
2024-04-16 05:50 am E 1.9 2.9----30.19-------
2024-04-16 05:00 am NE 6.0 8.9----30.18+0.00------
2024-04-16 04:50 am NE 6.0 7.0----30.18-------
2024-04-16 04:00 am NW 1.0 1.9----30.19+0.02------
2024-04-16 03:50 am- 0.0 1.9----30.19-------
2024-04-16 03:00 am- 0.0 1.9----30.19+0.02------
2024-04-16 02:50 am E 1.0 1.9----30.19-------
2024-04-16 02:00 am E 1.9 2.9----30.18+0.02------
2024-04-16 01:50 am E 1.9 2.9----30.18-------
2024-04-16 01:00 am- 0.0 1.9----30.17+0.02------
2024-04-16 12:50 amENE 1.9 2.9----30.17-------
2024-04-16 12:00 amESE 1.0 2.9----30.17+0.02------
2024-04-15 11:50 pm-------30.17-------
2024-04-15 11:00 pm NE 4.1 5.1----30.16+0.03------
2024-04-15 10:50 pmENE 1.9 4.1----30.16-------
2024-04-15 10:00 pmENE 2.9 5.1----30.15+0.04------
2024-04-15 09:50 pm E 2.9 4.1----30.15-------
2024-04-15 09:00 pm N 5.1 7.0----30.15+0.05------
2024-04-15 08:50 pm N 6.0-----30.15-------
2024-04-15 08:00 pm N 9.9 13.0----30.13-------
2024-04-15 07:50 pm N 12.0 15.0----30.13-------
2024-04-15 07:00 pm NE 7.0 11.1----30.11+0.06------
2024-04-15 06:50 pm NE 8.0 8.9----30.10-------
2024-04-15 06:00 pm E 4.1 6.0----30.10+0.07------
2024-04-15 05:50 pm E 4.1 6.0----30.09-------
2024-04-15 05:00 pmENE 8.0 13.0------------
2024-04-15 04:50 pmENE 8.0 9.9------------
2024-04-15 04:00 pm N 8.0 13.0----30.05+0.05------
2024-04-15 03:50 pmNNW 6.0 8.0----30.05-------
2024-04-15 03:00 pmWNW 8.9 14.0----30.03+0.04------
2024-04-15 02:50 pm W 12.0 15.0----30.02-------